| time (UTC) | temp C | wind direction | speed KPH | gust KPH | rain 1hr cm | rain 24hr cm | rain mn cm | humidity % | barometer mb |
| 20260507094523 | 7 | 112 | 0.0 | 0.0 | 0.00 | 0.03 | 0.00 | 84 | 1016.6 |
| 20260507093023 | 7 | 112 | 0.0 | 0.0 | 0.00 | 0.03 | 0.00 | 84 | 1016.7 |
| 20260507091522 | 7 | 112 | 0.0 | 0.0 | 0.00 | 0.03 | 0.00 | 84 | 1016.6 |
| 20260507090023 | 7 | 112 | 0.0 | 0.0 | 0.00 | 0.03 | 0.00 | 84 | 1016.7 |
| 20260507084519 | 8 | 112 | 0.0 | 0.0 | 0.00 | 0.03 | 0.00 | 84 | 1016.9 |
| 20260507083018 | 8 | 112 | 0.0 | 0.0 | 0.00 | 0.03 | 0.00 | 85 | 1017.0 |
| 20260507081532 | 8 | 112 | 0.0 | 0.0 | 0.00 | 0.03 | 0.00 | 86 | 1017.0 |
| 20260507080014 | 8 | 112 | 0.0 | 0.0 | 0.00 | 0.03 | 0.00 | 86 | 1017.2 |
| 20260507074523 | 8 | 112 | 0.0 | 0.0 | 0.00 | 0.03 | 0.00 | 87 | 1017.1 |
| 20260507073013 | 8 | 112 | 0.0 | 0.0 | 0.00 | 0.03 | 0.00 | 87 | 1017.2 |
| 20260507071511 | 8 | 112 | 0.0 | 0.0 | 0.00 | 0.03 | 0.00 | 86 | 1017.3 |
| 20260507070017 | 8 | 112 | 0.0 | 0.0 | 0.00 | 0.03 | 0.00 | 86 | 1017.3 |
| 20260507064509 | 8 | 112 | 0.0 | 0.0 | 0.00 | 0.03 | 0.03 | 86 | 1017.4 |
| 20260507063016 | 8 | 112 | 0.0 | 0.0 | 0.00 | 0.03 | 0.03 | 86 | 1017.4 |
| 20260507061508 | 8 | 112 | 0.0 | 0.0 | 0.00 | 0.03 | 0.03 | 86 | 1017.3 |
| 20260507060008 | 9 | 112 | 0.0 | 0.0 | 0.00 | 0.03 | 0.03 | 86 | 1017.6 |
| 20260507054507 | 9 | 222 | 0.0 | 0.0 | 0.00 | 0.03 | 0.03 | 86 | 1017.6 |
| 20260507053007 | 9 | 305 | 0.0 | 0.0 | 0.00 | 0.03 | 0.03 | 85 | 1017.7 |
| 20260507051506 | 9 | 305 | 0.0 | 0.0 | 0.00 | 0.03 | 0.03 | 84 | 1017.6 |
| 20260507050013 | 10 | 305 | 0.0 | 0.0 | 0.00 | 0.03 | 0.03 | 84 | 1017.6 |
| 20260507044604 | 10 | 305 | 0.0 | 0.0 | 0.00 | 0.03 | 0.03 | 83 | 1017.6 |
| 20260507043004 | 10 | 305 | 0.0 | 0.0 | 0.00 | 0.03 | 0.03 | 81 | 1017.6 |
| 20260507041503 | 11 | 305 | 0.0 | 0.0 | 0.00 | 0.03 | 0.03 | 80 | 1017.6 |
| 20260507040005 | 11 | 305 | 0.0 | 0.0 | 0.00 | 0.03 | 0.03 | 79 | 1017.6 |
| 20260507034501 | 12 | 305 | 0.0 | 0.0 | 0.00 | 0.03 | 0.03 | 78 | 1017.5 |
| 20260507033004 | 12 | 305 | 0.0 | 0.0 | 0.00 | 0.03 | 0.03 | 76 | 1017.5 |
| 20260507031501 | 13 | 305 | 0.0 | 0.0 | 0.00 | 0.03 | 0.03 | 75 | 1017.4 |
| 20260507030101 | 13 | 305 | 0.0 | 0.0 | 0.00 | 0.03 | 0.03 | 75 | 1017.4 |
| 20260507024600 | 14 | 305 | 0.0 | 0.0 | 0.00 | 0.03 | 0.03 | 74 | 1017.1 |
| 20260507023107 | 15 | 305 | 0.0 | 0.0 | 0.00 | 0.03 | 0.03 | 73 | 1017.0 |
| 20260507021602 | 15 | 303 | 0.0 | 0.0 | 0.00 | 0.03 | 0.03 | 72 | 1017.1 |
| 20260507020100 | 15 | 302 | 0.0 | 0.0 | 0.00 | 0.03 | 0.03 | 71 | 1017.1 |
| 20260507014605 | 16 | 310 | 0.0 | 9.7 | 0.00 | 0.03 | 0.03 | 69 | 1017.0 |
| 20260507013057 | 16 | 298 | 0.0 | 0.0 | 0.00 | 0.03 | 0.03 | 68 | 1016.9 |
| 20260507011557 | 16 | 306 | 0.0 | 0.0 | 0.00 | 0.03 | 0.03 | 67 | 1017.0 |
| 20260507004555 | 17 | 294 | 0.0 | 0.0 | 0.00 | 0.03 | 0.03 | 65 | 1016.9 |
| 20260507003054 | 17 | 313 | 0.0 | 11.3 | 0.00 | 0.03 | 0.03 | 64 | 1016.8 |
| 20260507001602 | 17 | 310 | 0.0 | 1.6 | 0.00 | 0.03 | 0.03 | 63 | 1016.8 |
| 20260507000053 | 18 | 294 | 0.0 | 9.7 | 0.00 | 0.03 | 0.03 | 62 | 1016.8 |
| 20260506234553 | 18 | 314 | 0.0 | 12.9 | 0.00 | 0.03 | 0.03 | 60 | 1016.7 |
| 20260506233109 | 18 | 311 | 0.0 | 14.5 | 0.00 | 0.03 | 0.03 | 60 | 1016.7 |
| 20260506231551 | 18 | 286 | 0.0 | 12.9 | 0.00 | 0.03 | 0.03 | 59 | 1016.7 |
| 20260506230051 | 18 | 280 | 0.0 | 14.5 | 0.00 | 0.03 | 0.03 | 56 | 1016.8 |
| 20260506224550 | 19 | 288 | 0.0 | 16.1 | 0.00 | 0.03 | 0.03 | 55 | 1016.8 |
| 20260506223048 | 19 | 339 | 0.0 | 9.7 | 0.00 | 0.03 | 0.03 | 52 | 1016.9 |
| 20260506221547 | 20 | 279 | 0.0 | 19.3 | 0.00 | 0.03 | 0.03 | 50 | 1017.1 |
| 20260506220046 | 20 | 297 | 0.0 | 8.0 | 0.00 | 0.03 | 0.03 | 49 | 1017.2 |
| 20260506214545 | 20 | 248 | 0.0 | 11.3 | 0.00 | 0.03 | 0.03 | 49 | 1017.4 |
| 20260506213055 | 20 | 302 | 1.6 | 20.9 | 0.00 | 0.03 | 0.03 | 48 | 1017.4 |
| 20260506211544 | 21 | 309 | 0.0 | 3.2 | 0.00 | 0.03 | 0.03 | 48 | 1017.8 |
| 20260506210042 | 20 | 292 | 0.0 | 16.1 | 0.00 | 0.03 | 0.03 | 51 | 1017.9 |
| 20260506204547 | 20 | 273 | 0.0 | 8.0 | 0.00 | 0.03 | 0.03 | 50 | 1017.9 |
| 20260506203040 | 20 | 323 | 0.0 | 12.9 | 0.00 | 0.03 | 0.03 | 50 | 1018.1 |
| 20260506201538 | 20 | 326 | 0.0 | 8.0 | 0.00 | 0.03 | 0.03 | 50 | 1018.1 |
| 20260506200035 | 19 | 315 | 0.0 | 3.2 | 0.00 | 0.03 | 0.03 | 52 | 1018.4 |
| 20260506194537 | 19 | 284 | 0.0 | 11.3 | 0.00 | 0.03 | 0.03 | 53 | 1018.6 |
| 20260506193034 | 19 | 250 | 0.0 | 1.6 | 0.00 | 0.03 | 0.03 | 53 | 1018.7 |
| 20260506191532 | 19 | 328 | 0.0 | 14.5 | 0.00 | 0.03 | 0.03 | 52 | 1018.8 |
| 20260506190031 | 19 | 327 | 0.0 | 14.5 | 0.00 | 0.03 | 0.03 | 55 | 1018.9 |
| 20260506184529 | 18 | 313 | 0.0 | 14.5 | 0.00 | 0.03 | 0.03 | 53 | 1018.9 |
| 20260506183026 | 18 | 284 | 0.0 | 9.7 | 0.00 | 0.03 | 0.03 | 55 | 1018.9 |
| 20260506181521 | 17 | 306 | 0.0 | 16.1 | 0.00 | 0.03 | 0.03 | 59 | 1019.1 |
| 20260506180017 | 16 | 279 | 0.0 | 0.0 | 0.00 | 0.03 | 0.03 | 61 | 1019.2 |
| 20260506174515 | 16 | 321 | 0.0 | 16.1 | 0.00 | 0.08 | 0.03 | 63 | 1019.1 |
| 20260506173013 | 16 | 332 | 0.0 | 17.7 | 0.00 | 0.08 | 0.03 | 64 | 1019.3 |
| 20260506171511 | 15 | 303 | 0.0 | 14.5 | 0.00 | 0.08 | 0.03 | 66 | 1019.2 |
| 20260506170005 | 15 | 313 | 0.0 | 9.7 | 0.00 | 0.08 | 0.03 | 68 | 1019.1 |
| 20260506164500 | 13 | 300 | 0.0 | 0.0 | 0.00 | 0.10 | 0.03 | 72 | 1018.9 |
| 20260506163116 | 12 | 304 | 0.0 | 0.0 | 0.00 | 0.10 | 0.03 | 80 | 1019.0 |
| 20260506161552 | 10 | 306 | 0.0 | 0.0 | 0.00 | 0.10 | 0.03 | 89 | 1019.0 |
| 20260506160048 | 9 | 307 | 0.0 | 0.0 | 0.00 | 0.10 | 0.03 | 96 | 1019.0 |
| 20260506154605 | 8 | 308 | 0.0 | 0.0 | 0.00 | 0.20 | 0.03 | 96 | 1019.1 |
| 20260506153049 | 6 | 308 | 0.0 | 0.0 | 0.00 | 0.20 | 0.03 | 96 | 1019.2 |
| 20260506151535 | 5 | 308 | 0.0 | 0.0 | 0.00 | 0.20 | 0.03 | 95 | 1019.1 |
| 20260506150033 | 4 | 308 | 0.0 | 0.0 | 0.00 | 0.20 | 0.03 | 95 | 1019.0 |
| 20260506144531 | 4 | 308 | 0.0 | 0.0 | 0.00 | 0.25 | 0.03 | 94 | 1019.0 |
| 20260506143040 | 3 | 308 | 0.0 | 0.0 | 0.00 | 0.25 | 0.03 | 94 | 1018.9 |
| 20260506141532 | 3 | 308 | 0.0 | 0.0 | 0.00 | 0.25 | 0.03 | 93 | 1018.8 |
| 20260506140028 | 2 | 308 | 0.0 | 0.0 | 0.00 | 0.25 | 0.03 | 93 | 1019.0 |
| 20260506134526 | 2 | 308 | 0.0 | 0.0 | 0.00 | 0.41 | 0.03 | 92 | 1018.7 |
| 20260506133026 | 2 | 308 | 0.0 | 0.0 | 0.00 | 0.41 | 0.03 | 92 | 1018.6 |
| 20260506131524 | 2 | 308 | 0.0 | 0.0 | 0.00 | 0.41 | 0.03 | 92 | 1018.4 |
| 20260506130022 | 2 | 308 | 0.0 | 0.0 | 0.03 | 0.41 | 0.03 | 92 | 1018.0 |
| 20260506124520 | 2 | 308 | 0.0 | 0.0 | 0.03 | 0.58 | 0.03 | 92 | 1017.8 |
| 20260506123020 | 2 | 308 | 0.0 | 0.0 | 0.03 | 0.58 | 0.03 | 92 | 1017.8 |
| 20260506121519 | 2 | 308 | 0.0 | 0.0 | 0.03 | 0.58 | 0.03 | 92 | 1017.8 |
| 20260506120017 | 2 | 308 | 0.0 | 0.0 | 0.00 | 0.56 | 0.00 | 92 | 1017.7 |
| 20260506114517 | 2 | 308 | 0.0 | 0.0 | 0.00 | 0.66 | 0.00 | 92 | 1017.8 |
| 20260506113016 | 3 | 308 | 0.0 | 0.0 | 0.00 | 0.66 | 0.00 | 92 | 1017.8 |
| 20260506111514 | 2 | 308 | 0.0 | 0.0 | 0.00 | 0.66 | 0.00 | 92 | 1017.6 |
| 20260506110014 | 2 | 308 | 0.0 | 0.0 | 0.00 | 0.66 | 0.00 | 92 | 1017.5 |
| 20260506104512 | 2 | 308 | 0.0 | 0.0 | 0.00 | 0.76 | 0.00 | 91 | 1017.6 |
| 20260506103011 | 2 | 308 | 0.0 | 0.0 | 0.00 | 0.76 | 0.00 | 91 | 1017.5 |
| 20260506101510 | 2 | 308 | 0.0 | 0.0 | 0.00 | 0.76 | 0.00 | 90 | 1017.3 |
| 20260506100008 | 2 | 308 | 0.0 | 0.0 | 0.00 | 0.76 | 0.00 | 90 | 1017.3 |